Location: Bonneuil
(46.1010°N, 2.9693°E)
Time: 23:08:38
(UTC+00:00)

ISS - Visible Passes

Search period start: 05 March 2021 00:00
Search period end: 15 March 2021 00:00
Orbit: 417 x 422 km, 51.6° (Epoch: 05 March)

Date Brightness Start Highest point End Pass type
(mag) Time Alt. Az. Time Alt. Az. Time Alt. Az.
05 Mar -1.7 03:57:03 25° NNE 03:57:03 25° NNE 03:59:06 10° ENE visible
05 Mar -3.0 05:30:05 10° WNW 05:33:21 47° NNE 05:36:37 10° E visible
06 Mar -0.2 03:11:24 11° ENE 03:11:24 11° ENE 03:11:31 10° ENE visible
06 Mar -2.6 04:44:22 25° NW 04:45:47 38° NNE 04:48:57 10° E visible
07 Mar -2.0 03:58:45 30° NNE 03:58:45 30° NNE 04:01:16 10° ENE visible
07 Mar -3.8 05:31:53 10° WNW 05:35:16 89° NNE 05:38:37 10° ESE visible
08 Mar -0.4 03:13:11 12° ENE 03:13:11 12° ENE 03:13:35 10° ENE visible
08 Mar -3.4 04:46:09 27° NW 04:47:46 63° NNE 04:51:06 10° ESE visible
09 Mar -2.6 04:00:40 43° NE 04:00:40 43° NE 04:03:28 10° E visible
09 Mar -3.1 05:33:50 10° WNW 05:36:59 38° SW 05:40:08 10° SSE visible
10 Mar -0.5 03:15:16 13° E 03:15:16 13° E 03:15:47 10° E visible
10 Mar -3.7 04:48:14 32° W 04:49:34 60° SSW 04:52:52 10° SE visible
11 Mar -2.9 04:02:59 46° ESE 04:02:59 46° ESE 04:05:27 10° ESE visible
11 Mar -1.9 05:36:23 10° W 05:38:29 16° SW 05:40:35 10° S visible
12 Mar -0.5 03:17:50 10° ESE 03:17:50 10° ESE 03:17:54 10° ESE visible
12 Mar -2.6 04:50:50 24° SW 04:51:09 24° SW 04:53:56 10° SSE visible
13 Mar -1.6 04:05:53 17° SSE 04:05:53 17° SSE 04:06:54 10° SSE visible
